Time,TemperatureF,DewpointF,PressureIn,WindDirection,WindDirectionDegrees,WindSpeedMPH,WindSpeedGustMPH,Humidity,HourlyPrecipIn,Conditions,Clouds,dailyrainin,SoftwareType,DateUTC
2013-03-07 00:00:00,29.1,25.7,30.08,NNE,22,1.1,1.5,87,0.00,CLR,,0.00,WeatherDisplay:10.37,2013-03-07 05:00:00,
2013-03-07 00:05:00,29.1,25.7,30.08,NNE,22,1.1,1.5,87,0.00,CLR,,0.00,WeatherDisplay:10.37,2013-03-07 05:05:00,
2013-03-07 00:10:00,28.9,25.6,30.08,NNE,22,1.1,1.1,87,0.00,CLR,,0.00,WeatherDisplay:10.37,2013-03-07 05:10:00,
2013-03-07 00:15:00,28.9,25.6,30.08,NNE,22,0.0,0.0,87,0.00,CLR,,0.00,WeatherDisplay:10.37,2013-03-07 05:15:00,
2013-03-07 00:20:00,28.9,25.6,30.08,NNE,22,0.0,0.0,87,0.00,CLR,,0.00,WeatherDisplay:10.37,2013-03-07 05:20:00,
2013-03-07 00:25:00,28.8,25.4,30.08,NNE,22,2.7,2.7,87,0.00,CLR,,0.00,WeatherDisplay:10.37,2013-03-07 05:25:00,
2013-03-07 00:30:00,28.8,25.4,30.08,NNE,22,3.5,3.6,87,0.00,CLR,,0.00,WeatherDisplay:10.37,2013-03-07 05:30:00,
2013-03-07 00:35:00,28.6,25.2,30.08,NNE,22,8.1,8.1,87,0.00,CLR,,0.00,WeatherDisplay:10.37,2013-03-07 05:35:00,
2013-03-07 00:40:00,28.6,25.2,30.08,NNE,22,6.9,7.5,87,0.00,CLR,,0.00,WeatherDisplay:10.37,2013-03-07 05:40:00,
2013-03-07 00:45:00,28.6,25.5,30.08,NNE,22,0.0,0.0,88,0.00,CLR,,0.00,WeatherDisplay:10.37,2013-03-07 05:45:00,
2013-03-07 00:50:00,28.6,25.5,30.08,NNE,22,4.6,4.6,88,0.00,CLR,,0.00,WeatherDisplay:10.37,2013-03-07 05:50:00,
2013-03-07 00:55:00,28.4,25.3,30.08,NNE,22,6.9,6.9,88,0.00,CLR,,0.00,WeatherDisplay:10.37,2013-03-07 05:55:00,
2013-03-07 01:00:00,28.2,25.1,30.08,NNE,22,5.8,5.8,88,0.00,CLR,,0.00,WeatherDisplay:10.37,2013-03-07 06:00:00,
2013-03-07 01:05:00,28.2,25.1,30.08,NNE,22,2.3,2.3,88,0.00,CLR,,0.00,WeatherDisplay:10.37,2013-03-07 06:05:00,
2013-03-07 01:10:00,28.2,25.1,30.08,NNE,22,8.1,8.1,88,0.00,CLR,,0.00,WeatherDisplay:10.37,2013-03-07 06:10:00,
2013-03-07 01:15:00,28.0,24.9,30.09,NNE,22,6.9,6.9,88,0.00,CLR,,0.00,WeatherDisplay:10.37,2013-03-07 06:15:00,
2013-03-07 01:20:00,28.0,24.9,30.09,NNE,22,7.7,7.7,88,0.00,CLR,,0.00,WeatherDisplay:10.37,2013-03-07 06:20:00,
2013-03-07 01:25:00,28.0,24.9,30.09,NNE,22,3.5,3.5,88,0.00,CLR,,0.00,WeatherDisplay:10.37,2013-03-07 06:25:00,
2013-03-07 01:30:00,28.0,24.9,30.09,NNE,22,2.3,2.8,88,0.00,CLR,,0.00,WeatherDisplay:10.37,2013-03-07 06:30:00,
2013-03-07 01:35:00,28.0,24.9,30.09,NNE,22,8.7,8.7,88,0.00,CLR,,0.00,WeatherDisplay:10.37,2013-03-07 06:35:00,
2013-03-07 01:40:00,28.0,24.9,30.08,NNE,22,1.2,1.5,88,0.00,CLR,,0.00,WeatherDisplay:10.37,2013-03-07 06:40:00,
2013-03-07 01:45:00,28.0,24.9,30.08,NNE,22,2.7,2.8,88,0.00,CLR,,0.00,WeatherDisplay:10.37,2013-03-07 06:45:00,
2013-03-07 01:50:00,28.0,24.9,30.08,NNE,22,4.6,4.6,88,0.00,CLR,,0.00,WeatherDisplay:10.37,2013-03-07 06:50:00,
2013-03-07 01:55:00,28.0,25.2,30.08,NNE,22,5.6,5.6,89,0.00,CLR,,0.00,WeatherDisplay:10.37,2013-03-07 06:55:00,
2013-03-07 02:00:00,27.9,25.0,30.08,NNE,22,4.6,4.6,89,0.00,CLR,,0.00,WeatherDisplay:10.37,2013-03-07 07:00:00,
2013-03-07 02:05:00,27.9,25.0,30.09,NNE,22,6.5,6.5,89,0.00,CLR,,0.00,WeatherDisplay:10.37,2013-03-07 07:05:00,
2013-03-07 02:10:00,27.7,24.9,30.09,NNE,22,4.6,4.6,89,0.00,CLR,,0.00,WeatherDisplay:10.37,2013-03-07 07:10:00,
2013-03-07 02:15:00,27.7,24.9,30.08,NNE,22,5.8,5.8,89,0.00,CLR,,0.00,WeatherDisplay:10.37,2013-03-07 07:15:00,
2013-03-07 02:20:00,27.7,24.9,30.08,NNE,22,2.3,2.6,89,0.00,CLR,,0.00,WeatherDisplay:10.37,2013-03-07 07:20:00,
2013-03-07 02:25:00,27.7,24.9,30.08,NNE,22,9.7,10.0,89,0.00,CLR,,0.00,WeatherDisplay:10.37,2013-03-07 07:25:00,
2013-03-07 02:30:00,27.7,24.9,30.08,NNE,22,5.6,5.6,89,0.00,CLR,,0.00,WeatherDisplay:10.37,2013-03-07 07:30:00,
2013-03-07 02:35:00,27.5,24.7,30.08,NNE,22,6.0,6.0,89,0.00,CLR,,0.00,WeatherDisplay:10.37,2013-03-07 07:35:00,
2013-03-07 02:40:00,27.5,24.7,30.08,NNE,22,5.8,5.8,89,0.00,CLR,,0.00,WeatherDisplay:10.37,2013-03-07 07:40:00,
2013-03-07 02:45:00,27.5,24.7,30.08,NNE,22,6.0,6.3,89,0.00,CLR,,0.00,WeatherDisplay:10.37,2013-03-07 07:45:00,
2013-03-07 02:50:00,27.5,24.7,30.08,NNE,22,5.3,5.3,89,0.00,CLR,,0.00,WeatherDisplay:10.37,2013-03-07 07:50:00,
2013-03-07 02:55:00,27.5,24.7,30.08,NNE,22,3.5,3.5,89,0.00,CLR,,0.00,WeatherDisplay:10.37,2013-03-07 07:55:00,
2013-03-07 03:00:00,27.5,24.7,30.08,NNE,22,4.6,4.6,89,0.00,CLR,,0.00,WeatherDisplay:10.37,2013-03-07 08:00:00,
2013-03-07 03:06:00,27.3,24.5,30.09,NNE,22,9.2,9.2,89,0.00,CLR,,0.00,WeatherDisplay:10.37,2013-03-07 08:06:00,
2013-03-07 03:11:00,27.3,24.5,30.09,NNE,22,3.5,3.5,89,0.00,CLR,,0.00,WeatherDisplay:10.37,2013-03-07 08:11:00,
2013-03-07 03:16:00,27.5,24.7,30.09,NNE,22,2.3,2.3,89,0.00,CLR,,0.00,WeatherDisplay:10.37,2013-03-07 08:16:00,
2013-03-07 03:21:00,27.5,24.7,30.09,NNE,22,4.6,4.6,89,0.00,CLR,,0.00,WeatherDisplay:10.37,2013-03-07 08:21:00,
2013-03-07 03:26:00,27.5,24.7,30.09,NNE,22,3.5,0.0,89,0.00,CLR,,0.00,WeatherDisplay:10.37,2013-03-07 08:26:00,
2013-03-07 03:31:00,27.5,24.7,30.09,NNE,22,2.4,2.4,89,0.00,CLR,,0.00,WeatherDisplay:10.37,2013-03-07 08:31:00,
2013-03-07 03:36:00,27.5,24.7,30.09,NNE,22,9.2,9.2,89,0.00,CLR,,0.00,WeatherDisplay:10.37,2013-03-07 08:36:00,
2013-03-07 03:41:00,27.5,24.7,30.09,NNE,22,0.0,0.0,89,0.00,CLR,,0.00,WeatherDisplay:10.37,2013-03-07 08:41:00,
2013-03-07 03:46:00,27.7,24.9,30.08,NNE,22,2.3,2.3,89,0.00,CLR,,0.00,WeatherDisplay:10.37,2013-03-07 08:46:00,
2013-03-07 03:51:00,27.7,24.9,30.09,NNE,22,1.1,1.1,89,0.00,CLR,,0.00,WeatherDisplay:10.37,2013-03-07 08:51:00,
2013-03-07 03:56:00,27.7,24.9,30.09,NNE,22,4.1,4.1,89,0.00,CLR,,0.00,WeatherDisplay:10.37,2013-03-07 08:56:00,
2013-03-07 04:01:00,27.7,24.9,30.09,NNE,22,2.3,2.3,89,0.00,CLR,,0.00,WeatherDisplay:10.37,2013-03-07 09:01:00,
2013-03-07 04:06:00,27.7,24.9,30.09,NNE,22,1.1,1.3,89,0.00,CLR,,0.00,WeatherDisplay:10.37,2013-03-07 09:06:00,
2013-03-07 04:12:00,27.7,24.9,30.10,NNE,22,1.1,1.5,89,0.00,CLR,,0.00,WeatherDisplay:10.37,2013-03-07 09:12:00,
2013-03-07 04:17:00,27.7,24.9,30.10,NNE,22,3.5,3.5,89,0.00,CLR,,0.00,WeatherDisplay:10.37,2013-03-07 09:17:00,
2013-03-07 04:22:00,27.7,24.9,30.10,NNE,22,2.3,2.3,89,0.00,CLR,,0.00,WeatherDisplay:10.37,2013-03-07 09:22:00,
2013-03-07 04:27:00,27.7,24.9,30.10,NNE,22,0.0,0.0,89,0.00,CLR,,0.00,WeatherDisplay:10.37,2013-03-07 09:27:00,
2013-03-07 04:32:00,27.7,24.9,30.10,NNE,22,0.0,0.0,89,0.00,CLR,,0.00,WeatherDisplay:10.37,2013-03-07 09:32:00,
2013-03-07 04:37:00,27.7,24.9,30.11,NNE,22,3.5,3.5,89,0.00,CLR,,0.00,WeatherDisplay:10.37,2013-03-07 09:37:00,
2013-03-07 04:42:00,27.7,24.9,30.11,NNE,22,0.0,0.0,89,0.00,CLR,,0.00,WeatherDisplay:10.37,2013-03-07 09:42:00,
2013-03-07 04:47:00,27.7,24.9,30.11,NNE,22,5.8,6.3,89,0.00,CLR,,0.00,WeatherDisplay:10.37,2013-03-07 09:47:00,
2013-03-07 04:52:00,27.7,24.9,30.11,NNE,22,0.7,0.0,89,0.00,CLR,,0.00,WeatherDisplay:10.37,2013-03-07 09:52:00,
2013-03-07 04:57:00,27.5,24.7,30.11,NNE,22,3.5,3.5,89,0.00,CLR,,0.00,WeatherDisplay:10.37,2013-03-07 09:57:00,
2013-03-07 05:02:00,27.5,24.7,30.11,NNE,22,0.0,0.0,89,0.00,CLR,,0.00,WeatherDisplay:10.37,2013-03-07 10:02:00,
2013-03-07 05:07:00,27.5,24.7,30.11,NNE,22,0.0,0.0,89,0.00,CLR,,0.00,WeatherDisplay:10.37,2013-03-07 10:07:00,
2013-03-07 05:12:00,27.5,24.7,30.12,NNE,22,2.7,2.7,89,0.00,CLR,,0.00,WeatherDisplay:10.37,2013-03-07 10:12:00,
2013-03-07 05:17:00,27.5,24.7,30.12,NNE,22,6.3,0.0,89,0.00,CLR,,0.00,WeatherDisplay:10.37,2013-03-07 10:17:00,
2013-03-07 05:22:00,27.5,24.7,30.12,NNE,22,3.5,3.5,89,0.00,CLR,,0.00,WeatherDisplay:10.37,2013-03-07 10:22:00,
2013-03-07 05:27:00,27.5,24.7,30.12,NNE,22,3.5,3.5,89,0.00,CLR,,0.00,WeatherDisplay:10.37,2013-03-07 10:27:00,
2013-03-07 05:32:00,27.3,24.5,30.12,NNE,22,2.3,2.3,89,0.00,CLR,,0.00,WeatherDisplay:10.37,2013-03-07 10:32:00,
2013-03-07 05:37:00,27.5,24.7,30.12,NNE,22,6.9,6.9,89,0.00,CLR,,0.00,WeatherDisplay:10.37,2013-03-07 10:37:00,
2013-03-07 05:42:00,27.5,24.7,30.12,NNE,22,0.0,0.0,89,0.00,CLR,,0.00,WeatherDisplay:10.37,2013-03-07 10:42:00,
2013-03-07 05:47:00,27.5,24.7,30.13,NNE,22,1.1,1.3,89,0.00,CLR,,0.00,WeatherDisplay:10.37,2013-03-07 10:47:00,
2013-03-07 05:52:00,27.5,24.7,30.13,NNE,22,4.6,4.6,89,0.00,CLR,,0.00,WeatherDisplay:10.37,2013-03-07 10:52:00,
2013-03-07 05:57:00,27.5,24.7,30.13,NNE,22,5.8,5.8,89,0.00,CLR,,0.00,WeatherDisplay:10.37,2013-03-07 10:57:00,
2013-03-07 06:02:00,27.5,24.7,30.13,NNE,22,1.1,1.1,89,0.00,CLR,,0.00,WeatherDisplay:10.37,2013-03-07 11:02:00,
2013-03-07 06:07:00,27.5,24.7,30.13,NNE,22,9.2,9.2,89,0.00,CLR,,0.00,WeatherDisplay:10.37,2013-03-07 11:07:00,
2013-03-07 06:13:00,27.3,24.5,30.13,NNE,22,3.5,4.0,89,0.00,CLR,,0.00,WeatherDisplay:10.37,2013-03-07 11:13:00,
2013-03-07 06:18:00,27.3,24.5,30.13,NNE,22,6.9,7.0,89,0.00,CLR,,0.00,WeatherDisplay:10.37,2013-03-07 11:18:00,
2013-03-07 06:23:00,27.3,24.5,30.14,NNE,22,5.8,5.8,89,0.00,CLR,,0.00,WeatherDisplay:10.37,2013-03-07 11:23:00,
2013-03-07 06:28:00,27.3,24.5,30.14,NNE,22,2.3,2.3,89,0.00,CLR,,0.00,WeatherDisplay:10.37,2013-03-07 11:28:00,
2013-03-07 06:33:00,27.3,24.5,30.14,NNE,22,1.1,1.5,89,0.00,CLR,,0.00,WeatherDisplay:10.37,2013-03-07 11:33:00,
2013-03-07 06:38:00,27.3,24.5,30.14,NNE,22,5.8,5.9,89,0.00,CLR,,0.00,WeatherDisplay:10.37,2013-03-07 11:38:00,
2013-03-07 06:43:00,27.3,24.5,30.14,NNE,22,4.8,5.0,89,0.00,CLR,,0.00,WeatherDisplay:10.37,2013-03-07 11:43:00,
2013-03-07 06:48:00,27.3,24.5,30.14,NNE,22,8.1,8.1,89,0.00,CLR,,0.00,WeatherDisplay:10.37,2013-03-07 11:48:00,
2013-03-07 06:53:00,27.1,24.3,30.14,NNE,22,8.1,8.8,89,0.00,CLR,,0.00,WeatherDisplay:10.37,2013-03-07 11:53:00,
2013-03-07 06:58:00,27.1,24.3,30.15,NNE,22,2.4,2.5,89,0.00,CLR,,0.00,WeatherDisplay:10.37,2013-03-07 11:58:00,
2013-03-07 07:03:00,27.1,24.3,30.15,NNE,22,5.1,5.1,89,0.00,CLR,,0.00,WeatherDisplay:10.37,2013-03-07 12:03:00,
2013-03-07 07:08:00,27.1,24.3,30.15,NNE,22,0.0,0.0,89,0.00,CLR,,0.00,WeatherDisplay:10.37,2013-03-07 12:08:00,
2013-03-07 07:13:00,27.1,24.3,30.16,NNE,22,4.6,5.3,89,0.00,CLR,,0.00,WeatherDisplay:10.37,2013-03-07 12:13:00,
2013-03-07 07:18:00,27.3,24.5,30.16,NNE,22,2.3,2.3,89,0.00,CLR,,0.00,WeatherDisplay:10.37,2013-03-07 12:18:00,
2013-03-07 07:24:00,27.1,24.3,30.16,NNE,22,5.8,5.8,89,0.00,CLR,,0.00,WeatherDisplay:10.37,2013-03-07 12:24:00,
2013-03-07 07:29:00,27.3,24.5,30.16,NNE,22,8.1,8.2,89,0.00,CLR,,0.00,WeatherDisplay:10.37,2013-03-07 12:29:00,
2013-03-07 07:34:00,27.1,24.3,30.16,NNE,22,2.3,2.3,89,0.00,CLR,,0.00,WeatherDisplay:10.37,2013-03-07 12:34:00,
2013-03-07 07:39:00,27.3,24.8,30.16,NNE,22,1.1,0.0,90,0.00,CLR,,0.00,WeatherDisplay:10.37,2013-03-07 12:39:00,
2013-03-07 07:44:00,27.3,24.8,30.17,NNE,22,1.9,1.9,90,0.00,CLR,,0.00,WeatherDisplay:10.37,2013-03-07 12:44:00,
2013-03-07 07:49:00,27.3,24.8,30.17,NNE,22,1.1,1.3,90,0.00,CLR,,0.00,WeatherDisplay:10.37,2013-03-07 12:49:00,
2013-03-07 07:54:00,27.3,24.8,30.17,NNE,22,2.3,2.3,90,0.00,CLR,,0.00,WeatherDisplay:10.37,2013-03-07 12:54:00,
2013-03-07 07:59:00,27.3,24.8,30.17,NNE,22,3.5,3.5,90,0.00,CLR,,0.00,WeatherDisplay:10.37,2013-03-07 12:59:00,
2013-03-07 08:04:00,27.3,24.8,30.17,NNE,22,4.6,4.6,90,0.00,CLR,,0.00,WeatherDisplay:10.37,2013-03-07 13:04:00,
2013-03-07 08:09:00,27.3,24.8,30.18,NNE,22,4.8,5.0,90,0.00,CLR,,0.00,WeatherDisplay:10.37,2013-03-07 13:09:00,
2013-03-07 08:14:00,27.3,24.8,30.18,NNE,22,5.8,5.8,90,0.00,CLR,,0.00,WeatherDisplay:10.37,2013-03-07 13:14:00,
2013-03-07 08:19:00,27.3,24.8,30.18,NNE,22,1.1,1.1,90,0.00,CLR,,0.00,WeatherDisplay:10.37,2013-03-07 13:19:00,
2013-03-07 08:24:00,27.5,25.0,30.18,NNE,22,3.1,3.1,90,0.00,CLR,,0.00,WeatherDisplay:10.37,2013-03-07 13:24:00,
2013-03-07 08:29:00,27.7,25.1,30.18,NNE,22,1.1,1.3,90,0.00,CLR,,0.00,WeatherDisplay:10.37,2013-03-07 13:29:00,
2013-03-07 08:34:00,27.7,25.1,30.18,NNE,22,5.8,5.8,90,0.00,CLR,,0.00,WeatherDisplay:10.37,2013-03-07 13:34:00,
2013-03-07 08:40:00,27.7,25.1,30.18,NNE,22,5.8,5.8,90,0.00,CLR,,0.00,WeatherDisplay:10.37,2013-03-07 13:40:00,
2013-03-07 08:45:00,27.5,25.0,30.19,NNE,22,3.5,3.5,90,0.00,CLR,,0.00,WeatherDisplay:10.37,2013-03-07 13:45:00,
2013-03-07 08:50:00,27.5,25.0,30.19,NNE,22,0.0,6.0,90,0.00,CLR,,0.00,WeatherDisplay:10.37,2013-03-07 13:50:00,
2013-03-07 08:55:00,27.7,25.1,30.19,NNE,22,0.0,1.0,90,0.00,CLR,,0.00,WeatherDisplay:10.37,2013-03-07 13:55:00,
2013-03-07 09:00:00,27.7,25.1,30.19,NNE,22,1.0,2.0,90,0.00,CLR,,0.00,WeatherDisplay:10.37,2013-03-07 14:00:00,
2013-03-07 09:05:00,27.7,25.1,30.19,NNE,22,1.0,2.0,90,0.00,CLR,,0.00,WeatherDisplay:10.37,2013-03-07 14:05:00,
2013-03-07 09:10:00,27.7,25.1,30.19,NNE,22,5.8,5.8,90,0.00,CLR,,0.00,WeatherDisplay:10.37,2013-03-07 14:10:00,
2013-03-07 09:15:00,27.7,25.1,30.19,NNE,22,0.0,0.0,90,0.00,CLR,,0.00,WeatherDisplay:10.37,2013-03-07 14:15:00,
2013-03-07 09:20:00,27.7,25.1,30.19,NNE,22,2.7,2.8,90,0.00,CLR,,0.00,WeatherDisplay:10.37,2013-03-07 14:20:00,
2013-03-07 09:25:00,27.7,25.1,30.19,NNE,22,4.6,4.6,90,0.00,CLR,,0.00,WeatherDisplay:10.37,2013-03-07 14:25:00,
2013-03-07 09:30:00,27.9,25.3,30.19,NNE,22,1.0,5.0,90,0.00,CLR,,0.00,WeatherDisplay:10.37,2013-03-07 14:30:00,
2013-03-07 09:35:00,27.9,25.3,30.19,NNE,22,1.1,1.1,90,0.00,CLR,,0.00,WeatherDisplay:10.37,2013-03-07 14:35:00,
2013-03-07 09:40:00,28.0,25.5,30.19,NNE,22,4.6,4.6,90,0.00,CLR,,0.00,WeatherDisplay:10.37,2013-03-07 14:40:00,
2013-03-07 09:45:00,28.0,25.5,30.19,NNE,22,1.2,1.3,90,0.00,CLR,,0.00,WeatherDisplay:10.37,2013-03-07 14:45:00,
2013-03-07 09:50:00,28.0,25.5,30.19,NNE,22,0.0,0.0,90,0.00,CLR,,0.00,WeatherDisplay:10.37,2013-03-07 14:50:00,
2013-03-07 09:55:00,28.2,25.7,30.19,NNE,22,6.9,7.3,90,0.00,CLR,,0.00,WeatherDisplay:10.37,2013-03-07 14:55:00,
2013-03-07 10:00:00,28.2,25.7,30.19,NNE,22,1.1,1.1,90,0.00,CLR,,0.00,WeatherDisplay:10.37,2013-03-07 15:00:00,
2013-03-07 10:05:00,28.2,25.7,30.20,NNE,22,0.0,0.0,90,0.00,CLR,,0.00,WeatherDisplay:10.37,2013-03-07 15:05:00,
2013-03-07 10:10:00,28.2,25.7,30.20,NNE,22,4.6,4.6,90,0.00,CLR,,0.00,WeatherDisplay:10.37,2013-03-07 15:10:00,
2013-03-07 10:15:00,28.2,25.7,30.20,NNE,22,0.0,0.0,90,0.00,CLR,,0.00,WeatherDisplay:10.37,2013-03-07 15:15:00,
2013-03-07 10:20:00,28.6,26.0,30.19,NNE,22,1.1,1.8,90,0.00,CLR,,0.00,WeatherDisplay:10.37,2013-03-07 15:20:00,
2013-03-07 10:25:00,28.6,26.0,30.19,NNE,22,2.3,2.3,90,0.00,CLR,,0.00,WeatherDisplay:10.37,2013-03-07 15:25:00,
2013-03-07 10:30:00,28.6,26.0,30.20,NNE,22,0.0,0.0,90,0.00,CLR,,0.00,WeatherDisplay:10.37,2013-03-07 15:30:00,
2013-03-07 10:35:00,28.8,26.2,30.19,NNE,22,0.0,0.0,90,0.00,CLR,,0.00,WeatherDisplay:10.37,2013-03-07 15:35:00,
2013-03-07 10:40:00,28.8,26.2,30.19,NNE,22,1.1,1.1,90,0.00,CLR,,0.00,WeatherDisplay:10.37,2013-03-07 15:40:00,
2013-03-07 10:45:00,28.8,26.2,30.19,NNE,22,0.0,0.0,90,0.00,CLR,,0.00,WeatherDisplay:10.37,2013-03-07 15:45:00,
2013-03-07 10:50:00,28.8,26.2,30.19,NNE,22,0.0,0.0,90,0.00,CLR,,0.00,WeatherDisplay:10.37,2013-03-07 15:50:00,
2013-03-07 10:55:00,28.9,26.4,30.19,NNE,22,0.0,0.0,90,0.00,CLR,,0.00,WeatherDisplay:10.37,2013-03-07 15:55:00,
2013-03-07 11:00:00,28.9,26.4,30.19,NNE,22,0.0,0.0,90,0.00,CLR,,0.00,WeatherDisplay:10.37,2013-03-07 16:00:00,
2013-03-07 11:05:00,29.1,26.6,30.19,NNE,22,0.0,0.0,90,0.00,CLR,,0.00,WeatherDisplay:10.37,2013-03-07 16:05:00,
2013-03-07 11:10:00,29.1,26.6,30.19,NNE,22,1.1,0.0,90,0.00,CLR,,0.00,WeatherDisplay:10.37,2013-03-07 16:10:00,
2013-03-07 11:15:00,29.3,26.5,30.19,NNE,22,6.9,7.5,89,0.00,CLR,,0.00,WeatherDisplay:10.37,2013-03-07 16:15:00,
2013-03-07 11:20:00,29.1,26.3,30.20,NNE,22,3.5,3.5,89,0.00,CLR,,0.00,WeatherDisplay:10.37,2013-03-07 16:20:00,
2013-03-07 11:25:00,29.3,26.5,30.20,NNE,22,0.0,0.0,89,0.00,CLR,,0.00,WeatherDisplay:10.37,2013-03-07 16:25:00,
2013-03-07 11:30:00,29.5,26.6,30.20,NNE,22,2.3,2.3,89,0.00,CLR,,0.00,WeatherDisplay:10.37,2013-03-07 16:30:00,
2013-03-07 11:35:00,29.5,26.6,30.20,NNE,22,2.3,2.3,89,0.00,CLR,,0.00,WeatherDisplay:10.37,2013-03-07 16:35:00,
2013-03-07 11:40:00,29.7,26.8,30.20,NNE,22,0.0,0.0,89,0.00,CLR,,0.00,WeatherDisplay:10.37,2013-03-07 16:40:00,
2013-03-07 11:45:00,29.7,26.8,30.20,NNE,22,2.3,2.3,89,0.00,CLR,,0.00,WeatherDisplay:10.37,2013-03-07 16:45:00,
2013-03-07 11:50:00,29.8,27.0,30.20,NNE,22,4.6,4.6,89,0.00,CLR,,0.00,WeatherDisplay:10.37,2013-03-07 16:50:00,
2013-03-07 11:55:00,29.5,26.6,30.20,NNE,22,3.5,3.5,89,0.00,CLR,,0.00,WeatherDisplay:10.37,2013-03-07 16:55:00,
2013-03-07 12:01:00,29.5,26.6,30.20,NNE,22,1.1,1.8,89,0.00,CLR,,0.00,WeatherDisplay:10.37,2013-03-07 17:01:00,
2013-03-07 12:06:00,29.5,26.6,30.20,NNE,22,0.0,0.0,89,0.00,CLR,,0.00,WeatherDisplay:10.37,2013-03-07 17:06:00,
2013-03-07 12:11:00,29.5,26.6,30.20,NNE,22,0.0,0.0,89,0.00,CLR,,0.00,WeatherDisplay:10.37,2013-03-07 17:11:00,
2013-03-07 12:16:00,29.5,26.6,30.20,NNE,22,3.5,3.5,89,0.00,CLR,,0.00,WeatherDisplay:10.37,2013-03-07 17:16:00,
2013-03-07 12:21:00,29.3,26.5,30.20,NNE,22,8.1,8.1,89,0.00,CLR,,0.00,WeatherDisplay:10.37,2013-03-07 17:21:00,
2013-03-07 12:26:00,29.1,26.3,30.20,NNE,22,3.5,3.5,89,0.00,CLR,,0.00,WeatherDisplay:10.37,2013-03-07 17:26:00,
2013-03-07 12:31:00,29.1,26.3,30.20,NNE,22,3.5,0.0,89,0.00,CLR,,0.00,WeatherDisplay:10.37,2013-03-07 17:31:00,
2013-03-07 12:36:00,29.3,26.5,30.20,NNE,22,1.4,2.0,89,0.00,CLR,,0.00,WeatherDisplay:10.37,2013-03-07 17:36:00,
2013-03-07 12:41:00,29.1,26.3,30.20,NNE,22,5.8,5.8,89,0.00,CLR,,0.00,WeatherDisplay:10.37,2013-03-07 17:41:00,
2013-03-07 12:46:00,29.1,26.3,30.21,NNE,22,0.0,0.0,89,0.00,CLR,,0.00,WeatherDisplay:10.37,2013-03-07 17:46:00,
2013-03-07 12:51:00,29.3,26.5,30.21,NNE,22,1.1,1.1,89,0.00,CLR,,0.00,WeatherDisplay:10.37,2013-03-07 17:51:00,
2013-03-07 12:56:00,29.3,26.5,30.20,NNE,22,0.0,0.0,89,0.00,CLR,,0.00,WeatherDisplay:10.37,2013-03-07 17:56:00,
2013-03-07 13:01:00,29.5,26.6,30.20,NNE,22,0.0,0.0,89,0.00,CLR,,0.00,WeatherDisplay:10.37,2013-03-07 18:01:00,
2013-03-07 13:06:00,29.5,26.6,30.20,NNE,22,4.6,4.6,89,0.00,CLR,,0.00,WeatherDisplay:10.37,2013-03-07 18:06:00,
2013-03-07 13:11:00,29.5,26.6,30.20,NNE,22,4.1,4.1,89,0.00,CLR,,0.00,WeatherDisplay:10.37,2013-03-07 18:11:00,
2013-03-07 13:16:00,29.5,26.4,30.19,NNE,22,1.1,1.2,88,0.00,CLR,,0.00,WeatherDisplay:10.37,2013-03-07 18:16:00,
2013-03-07 13:21:00,29.5,26.4,30.20,NNE,22,0.0,0.0,88,0.00,CLR,,0.00,WeatherDisplay:10.37,2013-03-07 18:21:00,
2013-03-07 13:26:00,29.7,26.5,30.19,NNE,22,4.6,4.6,88,0.00,CLR,,0.00,WeatherDisplay:10.37,2013-03-07 18:26:00,
2013-03-07 13:31:00,29.8,27.0,30.19,NNE,22,3.9,3.9,89,0.00,CLR,,0.00,WeatherDisplay:10.37,2013-03-07 18:31:00,
2013-03-07 13:36:00,29.8,26.7,30.19,NNE,22,3.5,3.5,88,0.00,CLR,,0.00,WeatherDisplay:10.37,2013-03-07 18:36:00,
2013-03-07 13:41:00,30.0,26.9,30.19,NNE,22,2.3,2.3,88,0.00,CLR,,0.00,WeatherDisplay:10.37,2013-03-07 18:41:00,
2013-03-07 13:46:00,30.0,26.9,30.19,NNE,22,6.9,6.9,88,0.00,CLR,,0.00,WeatherDisplay:10.37,2013-03-07 18:46:00,
2013-03-07 13:51:00,30.0,26.9,30.19,NNE,22,1.7,1.8,88,0.00,CLR,,0.00,WeatherDisplay:10.37,2013-03-07 18:51:00,
2013-03-07 13:57:00,30.0,26.9,30.18,NNE,22,3.5,3.5,88,0.00,CLR,,0.00,WeatherDisplay:10.37,2013-03-07 18:57:00,
2013-03-07 14:02:00,30.4,27.3,30.18,NNE,22,5.8,5.8,88,0.00,CLR,,0.00,WeatherDisplay:10.37,2013-03-07 19:02:00,
2013-03-07 14:07:00,30.7,27.6,30.18,NNE,22,3.5,3.5,88,0.00,CLR,,0.00,WeatherDisplay:10.37,2013-03-07 19:07:00,
2013-03-07 14:12:00,31.1,28.0,30.18,NNE,22,5.8,5.8,88,0.00,CLR,,0.00,WeatherDisplay:10.37,2013-03-07 19:12:00,
2013-03-07 14:17:00,31.1,28.0,30.18,NNE,22,1.1,1.3,88,0.00,CLR,,0.00,WeatherDisplay:10.37,2013-03-07 19:17:00,
2013-03-07 14:22:00,30.9,27.5,30.19,NNE,22,3.5,0.0,87,0.00,CLR,,0.00,WeatherDisplay:10.37,2013-03-07 19:22:00,
2013-03-07 14:27:00,30.9,27.5,30.18,NNE,22,2.4,2.4,87,0.00,CLR,,0.00,WeatherDisplay:10.37,2013-03-07 19:27:00,
2013-03-07 14:32:00,30.7,27.3,30.18,NNE,22,0.0,0.0,87,0.00,CLR,,0.00,WeatherDisplay:10.37,2013-03-07 19:32:00,
2013-03-07 14:37:00,30.7,27.3,30.18,NNE,22,3.6,3.6,87,0.00,CLR,,0.00,WeatherDisplay:10.37,2013-03-07 19:37:00,
2013-03-07 14:42:00,30.6,27.2,30.18,NNE,22,5.8,5.8,87,0.00,CLR,,0.00,WeatherDisplay:10.37,2013-03-07 19:42:00,
2013-03-07 14:47:00,30.6,27.2,30.18,NNE,22,2.3,4.7,87,0.00,CLR,,0.00,WeatherDisplay:10.37,2013-03-07 19:47:00,
2013-03-07 14:52:00,30.6,27.2,30.18,NNE,22,0.0,0.0,87,0.00,CLR,,0.00,WeatherDisplay:10.37,2013-03-07 19:52:00,
2013-03-07 14:57:00,30.6,27.2,30.18,NNE,22,0.0,0.0,87,0.00,CLR,,0.00,WeatherDisplay:10.37,2013-03-07 19:57:00,
2013-03-07 15:02:00,30.9,27.5,30.18,NNE,22,0.0,0.0,87,0.00,CLR,,0.00,WeatherDisplay:10.37,2013-03-07 20:02:00,
2013-03-07 15:07:00,31.1,27.7,30.19,NNE,22,3.6,3.6,87,0.00,CLR,,0.00,WeatherDisplay:10.37,2013-03-07 20:07:00,
2013-03-07 15:12:00,31.3,27.9,30.19,NNE,22,5.8,5.8,87,0.00,CLR,,0.00,WeatherDisplay:10.37,2013-03-07 20:12:00,
2013-03-07 15:17:00,31.6,28.2,30.19,NNE,22,5.8,5.8,87,0.00,CLR,,0.00,WeatherDisplay:10.37,2013-03-07 20:17:00,
2013-03-07 15:22:00,31.8,28.1,30.19,NNE,22,3.5,3.5,86,0.00,CLR,,0.00,WeatherDisplay:10.37,2013-03-07 20:22:00,
2013-03-07 15:27:00,31.8,28.1,30.19,NNE,22,4.6,4.6,86,0.00,CLR,,0.00,WeatherDisplay:10.37,2013-03-07 20:27:00,
2013-03-07 15:33:00,31.8,28.1,30.19,NNE,22,5.1,5.1,86,0.00,CLR,,0.00,WeatherDisplay:10.37,2013-03-07 20:33:00,
2013-03-07 15:38:00,32.2,28.5,30.19,NNE,22,1.1,1.1,86,0.00,CLR,,0.00,WeatherDisplay:10.37,2013-03-07 20:38:00,
2013-03-07 15:43:00,32.7,29.0,30.19,NNE,22,0.0,0.0,86,0.00,CLR,,0.00,WeatherDisplay:10.37,2013-03-07 20:43:00,
2013-03-07 15:48:00,32.7,28.7,30.20,NNE,22,4.1,4.1,85,0.00,CLR,,0.00,WeatherDisplay:10.37,2013-03-07 20:48:00,
2013-03-07 15:53:00,32.4,28.1,30.19,NNE,22,4.6,4.6,84,0.00,CLR,,0.00,WeatherDisplay:10.37,2013-03-07 20:53:00,
2013-03-07 15:58:00,32.2,27.9,30.20,NNE,22,3.5,3.5,84,0.00,CLR,,0.00,WeatherDisplay:10.37,2013-03-07 20:58:00,
2013-03-07 16:03:00,31.6,27.4,30.19,NNE,22,4.6,4.6,84,0.00,CLR,,0.00,WeatherDisplay:10.37,2013-03-07 21:03:00,
2013-03-07 16:08:00,31.6,27.6,30.19,NNE,22,0.0,0.0,85,0.00,CLR,,0.00,WeatherDisplay:10.37,2013-03-07 21:08:00,
2013-03-07 16:13:00,31.6,27.6,30.19,NNE,22,0.0,0.6,85,0.00,CLR,,0.00,WeatherDisplay:10.37,2013-03-07 21:13:00,
2013-03-07 16:18:00,31.3,27.3,30.19,NNE,22,1.1,1.1,85,0.00,CLR,,0.00,WeatherDisplay:10.37,2013-03-07 21:18:00,
2013-03-07 16:23:00,31.3,27.3,30.19,NNE,22,2.4,2.4,85,0.00,CLR,,0.00,WeatherDisplay:10.37,2013-03-07 21:23:00,
2013-03-07 16:28:00,31.3,27.3,30.19,NNE,22,0.0,0.0,85,0.00,CLR,,0.00,WeatherDisplay:10.37,2013-03-07 21:28:00,
2013-03-07 16:33:00,31.1,26.8,30.19,NNE,22,0.0,0.0,84,0.00,CLR,,0.00,WeatherDisplay:10.37,2013-03-07 21:33:00,
2013-03-07 16:38:00,31.3,27.3,30.19,NNE,22,3.5,3.5,85,0.00,CLR,,0.00,WeatherDisplay:10.37,2013-03-07 21:38:00,
2013-03-07 16:43:00,31.3,27.0,30.19,NNE,22,6.9,6.9,84,0.00,CLR,,0.00,WeatherDisplay:10.37,2013-03-07 21:43:00,
2013-03-07 16:48:00,31.1,26.8,30.19,NNE,22,4.6,5.0,84,0.00,CLR,,0.00,WeatherDisplay:10.37,2013-03-07 21:48:00,
2013-03-07 16:53:00,31.1,26.8,30.19,NNE,22,4.6,4.6,84,0.00,CLR,,0.00,WeatherDisplay:10.37,2013-03-07 21:53:00,
2013-03-07 16:58:00,31.6,27.6,30.19,NNE,22,5.1,5.1,85,0.00,CLR,,0.00,WeatherDisplay:10.37,2013-03-07 21:58:00,
2013-03-07 17:03:00,32.7,28.7,30.19,NNE,22,2.7,2.7,85,0.00,CLR,,0.00,WeatherDisplay:10.37,2013-03-07 22:03:00,
2013-03-07 17:09:00,32.7,28.4,30.19,NNE,22,1.4,2.0,84,0.00,CLR,,0.00,WeatherDisplay:10.37,2013-03-07 22:09:00,
2013-03-07 17:14:00,32.7,28.1,30.19,NNE,22,5.8,5.8,83,0.00,CLR,,0.00,WeatherDisplay:10.37,2013-03-07 22:14:00,
2013-03-07 17:19:00,32.7,28.1,30.19,NNE,22,4.6,4.6,83,0.00,CLR,,0.00,WeatherDisplay:10.37,2013-03-07 22:19:00,
2013-03-07 17:24:00,32.7,27.8,30.19,NNE,22,1.2,1.3,82,0.00,CLR,,0.00,WeatherDisplay:10.37,2013-03-07 22:24:00,
2013-03-07 17:29:00,32.4,27.5,30.19,NNE,22,3.5,3.5,82,0.00,CLR,,0.00,WeatherDisplay:10.37,2013-03-07 22:29:00,
2013-03-07 17:34:00,31.8,27.0,30.20,NNE,22,3.5,3.5,82,0.00,CLR,,0.00,WeatherDisplay:10.37,2013-03-07 22:34:00,
2013-03-07 17:39:00,31.6,26.8,30.20,NNE,22,2.3,2.3,82,0.00,CLR,,0.00,WeatherDisplay:10.37,2013-03-07 22:39:00,
2013-03-07 17:44:00,31.1,26.2,30.21,NNE,22,3.5,3.5,82,0.00,CLR,,0.00,WeatherDisplay:10.37,2013-03-07 22:44:00,
2013-03-07 17:49:00,30.9,26.4,30.21,NNE,22,8.1,8.1,83,0.00,CLR,,0.00,WeatherDisplay:10.37,2013-03-07 22:49:00,
2013-03-07 17:54:00,30.7,26.2,30.21,NNE,22,4.1,4.1,83,0.00,CLR,,0.00,WeatherDisplay:10.37,2013-03-07 22:54:00,
2013-03-07 17:59:00,30.4,25.8,30.21,NNE,22,2.3,2.3,83,0.00,CLR,,0.00,WeatherDisplay:10.37,2013-03-07 22:59:00,
2013-03-07 18:04:00,30.2,25.7,30.21,NNE,22,1.1,1.1,83,0.00,CLR,,0.00,WeatherDisplay:10.37,2013-03-07 23:04:00,
2013-03-07 18:09:00,30.0,25.8,30.21,NNE,22,3.6,3.6,84,0.00,CLR,,0.00,WeatherDisplay:10.37,2013-03-07 23:09:00,
2013-03-07 18:14:00,30.0,25.8,30.21,NNE,22,6.0,6.0,84,0.00,CLR,,0.00,WeatherDisplay:10.37,2013-03-07 23:14:00,
2013-03-07 18:19:00,29.8,25.6,30.21,NNE,22,2.3,2.3,84,0.00,CLR,,0.00,WeatherDisplay:10.37,2013-03-07 23:19:00,
2013-03-07 18:24:00,29.7,25.4,30.21,NNE,22,2.3,2.5,84,0.00,CLR,,0.00,WeatherDisplay:10.37,2013-03-07 23:24:00,
2013-03-07 18:29:00,29.7,25.7,30.21,NNE,22,3.5,4.0,85,0.00,CLR,,0.00,WeatherDisplay:10.37,2013-03-07 23:29:00,
2013-03-07 18:34:00,29.7,25.7,30.21,NNE,22,4.8,5.0,85,0.00,CLR,,0.00,WeatherDisplay:10.37,2013-03-07 23:34:00,
2013-03-07 18:39:00,29.5,25.5,30.21,NNE,22,0.0,0.0,85,0.00,CLR,,0.00,WeatherDisplay:10.37,2013-03-07 23:39:00,
2013-03-07 18:44:00,29.5,25.5,30.21,NNE,22,2.3,2.3,85,0.00,CLR,,0.00,WeatherDisplay:10.37,2013-03-07 23:44:00,
2013-03-07 18:49:00,29.5,25.5,30.21,NNE,22,2.4,2.5,85,0.00,CLR,,0.00,WeatherDisplay:10.37,2013-03-07 23:49:00,
2013-03-07 18:54:00,29.3,25.4,30.22,NNE,22,3.5,3.5,85,0.00,CLR,,0.00,WeatherDisplay:10.37,2013-03-07 23:54:00,
2013-03-07 18:59:00,29.3,25.4,30.22,NNE,22,0.0,0.0,85,0.00,CLR,,0.00,WeatherDisplay:10.37,2013-03-07 23:59:00,
2013-03-07 19:04:00,29.3,25.4,30.21,NNE,22,0.0,0.0,85,0.00,CLR,,0.00,WeatherDisplay:10.37,2013-03-08 00:04:00,
2013-03-07 19:09:00,29.3,25.6,30.22,NNE,22,5.1,5.1,86,0.00,CLR,,0.00,WeatherDisplay:10.37,2013-03-08 00:09:00,
2013-03-07 19:14:00,29.3,25.6,30.22,NNE,22,3.5,3.5,86,0.00,CLR,,0.00,WeatherDisplay:10.37,2013-03-08 00:14:00,
2013-03-07 19:19:00,29.3,25.6,30.23,NNE,22,0.0,0.0,86,0.00,CLR,,0.00,WeatherDisplay:10.37,2013-03-08 00:19:00,
2013-03-07 19:24:00,29.3,25.6,30.23,NNE,22,3.5,3.5,86,0.00,CLR,,0.00,WeatherDisplay:10.37,2013-03-08 00:24:00,
2013-03-07 19:29:00,29.3,25.6,30.22,NNE,22,2.3,2.3,86,0.00,CLR,,0.00,WeatherDisplay:10.37,2013-03-08 00:29:00,
2013-03-07 19:34:00,29.3,25.6,30.22,NNE,22,3.5,3.8,86,0.00,CLR,,0.00,WeatherDisplay:10.37,2013-03-08 00:34:00,
2013-03-07 19:39:00,29.3,25.6,30.22,NNE,22,2.3,2.5,86,0.00,CLR,,0.00,WeatherDisplay:10.37,2013-03-08 00:39:00,
2013-03-07 19:44:00,29.3,25.6,30.22,NNE,22,3.5,3.5,86,0.00,CLR,,0.00,WeatherDisplay:10.37,2013-03-08 00:44:00,
2013-03-07 19:49:00,29.1,25.5,30.22,NNE,22,1.1,1.2,86,0.00,CLR,,0.00,WeatherDisplay:10.37,2013-03-08 00:49:00,
2013-03-07 19:55:00,29.2,25.5,30.21,NNE,22,0.0,0.0,86,0.00,CLR,,0.00,WeatherDisplay:10.37,2013-03-08 00:55:00,
2013-03-07 20:00:00,29.3,25.6,30.21,NNE,22,2.0,4.0,86,0.00,CLR,,0.00,WeatherDisplay:10.37,2013-03-08 01:00:00,
2013-03-07 20:05:00,29.1,25.5,30.22,NNE,22,3.5,3.5,86,0.00,CLR,,0.00,WeatherDisplay:10.37,2013-03-08 01:05:00,
2013-03-07 20:10:00,29.1,25.5,30.21,NNE,22,5.8,5.8,86,0.00,CLR,,0.00,WeatherDisplay:10.37,2013-03-08 01:10:00,
2013-03-07 20:15:00,29.1,25.5,30.21,NNE,22,3.5,4.0,86,0.00,CLR,,0.00,WeatherDisplay:10.37,2013-03-08 01:15:00,
2013-03-07 20:20:00,29.1,25.7,30.21,NNE,22,1.1,1.8,87,0.00,CLR,,0.00,WeatherDisplay:10.37,2013-03-08 01:20:00,
2013-03-07 20:25:00,29.1,25.7,30.21,NNE,22,0.0,0.0,87,0.00,CLR,,0.00,WeatherDisplay:10.37,2013-03-08 01:25:00,
2013-03-07 20:30:00,29.1,25.7,30.21,NNE,22,3.5,3.5,87,0.00,CLR,,0.00,WeatherDisplay:10.37,2013-03-08 01:30:00,
2013-03-07 20:35:00,29.1,25.7,30.22,NNE,22,3.4,3.4,87,0.00,CLR,,0.00,WeatherDisplay:10.37,2013-03-08 01:35:00,
2013-03-07 20:40:00,29.1,25.7,30.22,NNE,22,3.5,3.5,87,0.00,CLR,,0.00,WeatherDisplay:10.37,2013-03-08 01:40:00,
2013-03-07 20:45:00,29.1,25.7,30.22,NNE,22,0.0,0.0,87,0.00,CLR,,0.00,WeatherDisplay:10.37,2013-03-08 01:45:00,
2013-03-07 20:50:00,29.1,25.7,30.22,NNE,22,3.5,4.0,87,0.00,CLR,,0.00,WeatherDisplay:10.37,2013-03-08 01:50:00,
2013-03-07 20:55:00,29.1,25.7,30.22,NNE,22,5.8,5.8,87,0.00,CLR,,0.00,WeatherDisplay:10.37,2013-03-08 01:55:00,
2013-03-07 21:00:00,29.1,25.7,30.22,NNE,22,6.9,6.9,87,0.00,CLR,,0.00,WeatherDisplay:10.37,2013-03-08 02:00:00,
2013-03-07 21:05:00,29.1,25.7,30.23,NNE,22,2.4,2.5,87,0.00,CLR,,0.00,WeatherDisplay:10.37,2013-03-08 02:05:00,
2013-03-07 21:10:00,29.1,25.7,30.23,NNE,22,3.6,3.6,87,0.00,CLR,,0.00,WeatherDisplay:10.37,2013-03-08 02:10:00,
2013-03-07 21:15:00,29.3,25.9,30.23,NNE,22,0.0,0.0,87,0.00,CLR,,0.00,WeatherDisplay:10.37,2013-03-08 02:15:00,
2013-03-07 21:20:00,29.3,25.9,30.22,NNE,22,2.9,2.9,87,0.00,CLR,,0.00,WeatherDisplay:10.37,2013-03-08 02:20:00,
2013-03-07 21:25:00,29.3,25.9,30.22,NNE,22,3.5,3.5,87,0.00,CLR,,0.00,WeatherDisplay:10.37,2013-03-08 02:25:00,
2013-03-07 21:30:00,29.3,25.9,30.23,NNE,22,1.1,1.5,87,0.00,CLR,,0.00,WeatherDisplay:10.37,2013-03-08 02:30:00,
2013-03-07 21:35:00,29.3,25.9,30.22,NNE,22,4.6,4.6,87,0.00,CLR,,0.00,WeatherDisplay:10.37,2013-03-08 02:35:00,
2013-03-07 21:40:00,29.3,25.9,30.22,NNE,22,4.6,4.6,87,0.00,CLR,,0.00,WeatherDisplay:10.37,2013-03-08 02:40:00,
2013-03-07 21:45:00,29.3,25.9,30.22,NNE,22,0.0,0.0,87,0.00,CLR,,0.00,WeatherDisplay:10.37,2013-03-08 02:45:00,
2013-03-07 21:50:00,29.3,25.9,30.22,NNE,22,0.0,0.0,87,0.00,CLR,,0.00,WeatherDisplay:10.37,2013-03-08 02:50:00,
2013-03-07 21:55:00,29.3,25.9,30.22,NNE,22,3.5,3.5,87,0.00,CLR,,0.00,WeatherDisplay:10.37,2013-03-08 02:55:00,
2013-03-07 22:00:00,29.3,25.9,30.22,NNE,22,0.0,1.4,87,0.00,CLR,,0.00,WeatherDisplay:10.37,2013-03-08 03:00:00,
2013-03-07 22:05:00,29.3,25.9,30.22,NNE,22,3.6,3.6,87,0.00,CLR,,0.00,WeatherDisplay:10.37,2013-03-08 03:05:00,
2013-03-07 22:10:00,29.3,25.9,30.22,NNE,22,3.9,3.9,87,0.00,CLR,,0.00,WeatherDisplay:10.37,2013-03-08 03:10:00,
2013-03-07 22:15:00,29.3,25.9,30.22,NNE,22,4.6,4.6,87,0.00,CLR,,0.00,WeatherDisplay:10.37,2013-03-08 03:15:00,
2013-03-07 22:20:00,29.3,25.9,30.23,NNE,22,2.3,2.3,87,0.00,CLR,,0.00,WeatherDisplay:10.37,2013-03-08 03:20:00,
2013-03-07 22:25:00,29.3,25.9,30.23,NNE,22,3.5,3.5,87,0.00,CLR,,0.00,WeatherDisplay:10.37,2013-03-08 03:25:00,
2013-03-07 22:30:00,29.1,25.7,30.22,NNE,22,1.2,1.3,87,0.00,CLR,,0.00,WeatherDisplay:10.37,2013-03-08 03:30:00,
2013-03-07 22:35:00,28.9,25.6,30.22,NNE,22,0.5,0.5,87,0.00,CLR,,0.00,WeatherDisplay:10.37,2013-03-08 03:35:00,
2013-03-07 22:40:00,28.6,25.2,30.22,NNE,22,0.0,0.0,87,0.00,CLR,,0.00,WeatherDisplay:10.37,2013-03-08 03:40:00,
2013-03-07 22:45:00,28.4,25.0,30.22,NNE,22,1.7,1.8,87,0.00,CLR,,0.00,WeatherDisplay:10.37,2013-03-08 03:45:00,
2013-03-07 22:50:00,28.4,25.0,30.22,NNE,22,7.5,7.5,87,0.00,CLR,,0.00,WeatherDisplay:10.37,2013-03-08 03:50:00,
2013-03-07 22:55:00,28.6,25.2,30.22,NNE,22,1.1,1.8,87,0.00,CLR,,0.00,WeatherDisplay:10.37,2013-03-08 03:55:00,
2013-03-07 23:00:00,28.6,25.2,30.22,NNE,22,2.3,2.3,87,0.00,CLR,,0.00,WeatherDisplay:10.37,2013-03-08 04:00:00,
2013-03-07 23:05:00,28.6,25.2,30.22,NNE,22,1.4,1.4,87,0.00,CLR,,0.00,WeatherDisplay:10.37,2013-03-08 04:05:00,
2013-03-07 23:10:00,28.8,25.4,30.22,NNE,22,0.0,0.0,87,0.00,CLR,,0.00,WeatherDisplay:10.37,2013-03-08 04:10:00,
2013-03-07 23:15:00,28.8,25.4,30.22,NNE,22,1.7,1.8,87,0.00,CLR,,0.00,WeatherDisplay:10.37,2013-03-08 04:15:00,
2013-03-07 23:20:00,28.8,25.4,30.21,NNE,22,3.5,3.5,87,0.00,CLR,,0.00,WeatherDisplay:10.37,2013-03-08 04:20:00,
2013-03-07 23:25:00,28.6,25.2,30.23,NNE,22,0.0,0.0,87,0.00,CLR,,0.00,WeatherDisplay:10.37,2013-03-08 04:25:00,
2013-03-07 23:30:00,28.6,25.2,30.23,NNE,22,0.0,0.0,87,0.00,CLR,,0.00,WeatherDisplay:10.37,2013-03-08 04:30:00,
2013-03-07 23:35:00,28.6,25.2,30.23,NNE,22,0.0,1.2,87,0.00,CLR,,0.00,WeatherDisplay:10.37,2013-03-08 04:35:00,
2013-03-07 23:40:00,28.8,25.4,30.22,NNE,22,0.0,0.0,87,0.00,CLR,,0.00,WeatherDisplay:10.37,2013-03-08 04:40:00,
2013-03-07 23:45:00,28.9,25.6,30.22,NNE,22,0.0,0.0,87,0.00,CLR,,0.00,WeatherDisplay:10.37,2013-03-08 04:45:00,
2013-03-07 23:50:00,28.9,25.6,30.22,NNE,22,1.1,1.1,87,0.00,CLR,,0.00,WeatherDisplay:10.37,2013-03-08 04:50:00,
2013-03-07 23:55:00,29.1,25.7,30.22,NNE,22,0.0,0.0,87,0.00,CLR,,0.00,WeatherDisplay:10.37,2013-03-08 04:55:00,